Location: Newark
(25.6108°S, 54.5803°W)
Time: 08:53:13
(UTC+00:00)

Tiros 1 - Pass Details

Date: 27 October 2020
Orbit: 630 x 664 km, 48.4° (Epoch: 29 November)

Event Time Altitude Azimuth Distance (km) Brightness Sun altitude
Rises 17:20:23 0° 326° (NW) 2,953 10.9 59.5°
Reaches altitude 10° 17:22:44 10° 330° (NNW) 2,054 10.2 59.0°
Maximum altitude 17:27:22 56° 47° (NE) 784 8.2 58.0°
Drops below altitude 10° 17:32:06 10° 125° (SE) 2,090 9.6 57.0°
Sets 17:34:31 0° 129° (SE) 3,011 10.3 56.5°
